| time (UTC) | temp C | wind direction | speed KPH | gust KPH | rain 1hr cm | rain 24hr cm | rain mn cm | humidity % | barometer mb |
| 20260506050104 | 1 | 9 | 1.6 | 9.7 | 0.00 | 2.57 | 2.57 | 89 | 1015.8 |
| 20260506044605 | 1 | 9 | 4.8 | 9.7 | 0.00 | 2.57 | 2.57 | 88 | 1016.1 |
| 20260506043604 | 1 | 10 | 8.0 | 16.1 | 0.00 | 2.57 | 2.57 | 89 | 1016.3 |
| 20260506041604 | 1 | 9 | 3.2 | 4.8 | 0.00 | 2.57 | 2.57 | 90 | 1016.1 |
| 20260506041104 | 1 | 9 | 3.2 | 4.8 | 0.03 | 2.57 | 2.57 | 90 | 1016.2 |
| 20260506040604 | 1 | 9 | 3.2 | 8.0 | 0.03 | 2.57 | 2.57 | 90 | 1016.3 |
| 20260506034605 | 1 | 9 | 3.2 | 4.8 | 0.13 | 2.57 | 2.57 | 89 | 1016.1 |
| 20260506034104 | 1 | 9 | 0.0 | 0.0 | 0.18 | 2.57 | 2.57 | 89 | 1016.1 |
| 20260506033104 | 2 | 9 | 1.6 | 4.8 | 0.30 | 2.57 | 2.57 | 89 | 1015.9 |
| 20260506031605 | 2 | 9 | 1.6 | 4.8 | 0.36 | 2.57 | 2.57 | 89 | 1015.8 |
| 20260506031104 | 2 | 9 | 4.8 | 8.0 | 0.33 | 2.54 | 2.54 | 90 | 1015.8 |
| 20260506030604 | 2 | 9 | 3.2 | 4.8 | 0.33 | 2.54 | 2.54 | 89 | 1015.6 |
| 20260506024604 | 2 | 8 | 1.6 | 4.8 | 0.23 | 2.44 | 2.44 | 86 | 1015.2 |
| 20260506024104 | 2 | 11 | 4.8 | 8.0 | 0.18 | 2.39 | 2.39 | 85 | 1015.1 |
| 20260506023604 | 2 | 9 | 3.2 | 4.8 | 0.10 | 2.31 | 2.31 | 84 | 1015.0 |
| 20260506021604 | 4 | 11 | 8.0 | 20.9 | 0.00 | 2.21 | 2.21 | 77 | 1014.5 |
| 20260506021104 | 5 | 10 | 9.7 | 22.5 | 0.00 | 2.21 | 2.21 | 73 | 1014.4 |
| 20260506020604 | 5 | 10 | 8.0 | 14.5 | 0.00 | 2.21 | 2.21 | 73 | 1014.4 |
| 20260506020104 | 5 | 9 | 11.3 | 19.3 | 0.00 | 2.21 | 2.21 | 78 | 1014.3 |
| 20260506014604 | 6 | 10 | 6.4 | 9.7 | 0.00 | 2.21 | 2.21 | 76 | 1014.0 |
| 20260506014104 | 6 | 9 | 4.8 | 9.7 | 0.00 | 2.21 | 2.21 | 80 | 1013.9 |
| 20260506013604 | 6 | 11 | 4.8 | 12.9 | 0.00 | 2.21 | 2.21 | 78 | 1013.7 |
| 20260506013104 | 6 | 11 | 8.0 | 16.1 | 0.00 | 2.21 | 2.21 | 76 | 1013.8 |
| 20260506011603 | 6 | 10 | 0.0 | 1.6 | 0.00 | 2.21 | 2.21 | 76 | 1013.7 |
| 20260506011105 | 6 | 10 | 1.6 | 3.2 | 0.00 | 2.21 | 2.21 | 77 | 1013.7 |
| 20260506010604 | 6 | 9 | 0.0 | 1.6 | 0.00 | 2.21 | 2.21 | 78 | 1013.7 |
| 20260506010104 | 6 | 9 | 0.0 | 1.6 | 0.00 | 2.21 | 2.21 | 77 | 1013.6 |
| 20260506004604 | 6 | 7 | 0.0 | 3.2 | 0.00 | 2.21 | 2.21 | 77 | 1013.6 |
| 20260506004104 | 6 | 14 | 1.6 | 3.2 | 0.00 | 2.21 | 2.21 | 78 | 1013.7 |
| 20260506003604 | 6 | 15 | 0.0 | 3.2 | 0.00 | 2.21 | 2.21 | 79 | 1013.7 |
| 20260506001604 | 6 | 13 | 1.6 | 4.8 | 0.00 | 2.21 | 2.21 | 81 | 1013.8 |
| 20260506001104 | 6 | 13 | 1.6 | 4.8 | 0.00 | 2.21 | 2.21 | 81 | 1013.8 |
| 20260506000604 | 6 | 14 | 1.6 | 8.0 | 0.00 | 2.21 | 2.21 | 81 | 1013.7 |
| 20260506000104 | 6 | 13 | 4.8 | 4.8 | 0.00 | 2.21 | 2.21 | 83 | 1013.7 |
| 20260505234104 | 5 | 13 | 1.6 | 4.8 | 0.00 | 2.21 | 2.21 | 82 | 1013.7 |
| 20260505233604 | 5 | 15 | 1.6 | 1.6 | 0.00 | 2.21 | 2.21 | 84 | 1013.8 |
| 20260505233104 | 5 | 15 | 3.2 | 4.8 | 0.00 | 2.21 | 2.21 | 84 | 1013.9 |
| 20260505231104 | 5 | 12 | 1.6 | 8.0 | 0.00 | 2.21 | 2.21 | 84 | 1014.0 |
| 20260505230604 | 5 | 13 | 3.2 | 4.8 | 0.00 | 2.21 | 2.21 | 83 | 1014.0 |
| 20260505230104 | 5 | 13 | 3.2 | 8.0 | 0.00 | 2.21 | 2.21 | 84 | 1014.0 |
| 20260505224604 | 5 | 13 | 3.2 | 8.0 | 0.00 | 2.21 | 2.21 | 85 | 1014.1 |
| 20260505224104 | 5 | 14 | 3.2 | 4.8 | 0.00 | 2.21 | 2.21 | 85 | 1014.1 |
| 20260505223604 | 5 | 13 | 3.2 | 4.8 | 0.00 | 2.21 | 2.21 | 87 | 1014.1 |
| 20260505221605 | 5 | 13 | 3.2 | 8.0 | 0.03 | 2.21 | 2.21 | 88 | 1014.1 |
| 20260505221105 | 5 | 12 | 1.6 | 4.8 | 0.05 | 2.21 | 2.21 | 92 | 1014.0 |
| 20260505220605 | 4 | 13 | 3.2 | 4.8 | 0.08 | 2.21 | 2.21 | 90 | 1014.1 |
| 20260505220105 | 4 | 14 | 1.6 | 9.7 | 0.08 | 2.21 | 2.21 | 91 | 1014.0 |
| 20260505214605 | 3 | 13 | 3.2 | 4.8 | 0.20 | 2.21 | 2.21 | 91 | 1014.2 |
| 20260505214104 | 3 | 13 | 1.6 | 4.8 | 0.23 | 2.21 | 2.21 | 89 | 1014.2 |
| 20260505213605 | 3 | 14 | 0.0 | 4.8 | 0.25 | 2.21 | 2.21 | 89 | 1014.2 |
| 20260505213105 | 3 | 13 | 3.2 | 8.0 | 0.28 | 2.21 | 2.21 | 89 | 1014.3 |
| 20260505211605 | 3 | 13 | 1.6 | 8.0 | 0.28 | 2.18 | 2.18 | 90 | 1014.3 |
| 20260505210605 | 3 | 12 | 3.2 | 8.0 | 0.23 | 2.13 | 2.13 | 90 | 1014.3 |
| 20260505210105 | 3 | 13 | 1.6 | 8.0 | 0.23 | 2.13 | 2.13 | 90 | 1014.4 |
| 20260505204605 | 3 | 13 | 3.2 | 8.0 | 0.10 | 2.01 | 2.01 | 91 | 1014.4 |
| 20260505204105 | 3 | 13 | 0.0 | 9.7 | 0.08 | 1.98 | 1.98 | 91 | 1014.3 |
| 20260505203605 | 3 | 13 | 0.0 | 4.8 | 0.05 | 1.96 | 1.96 | 91 | 1014.3 |
| 20260505203105 | 3 | 14 | 1.6 | 8.0 | 0.03 | 1.93 | 1.93 | 91 | 1014.2 |
| 20260505201605 | 3 | 14 | 1.6 | 4.8 | 0.00 | 1.91 | 1.91 | 91 | 1013.9 |
| 20260505201105 | 3 | 13 | 3.2 | 4.8 | 0.00 | 1.91 | 1.91 | 92 | 1013.9 |
| 20260505200605 | 3 | 11 | 1.6 | 3.2 | 0.00 | 1.91 | 1.91 | 91 | 1013.8 |
| 20260505200105 | 3 | 13 | 1.6 | 4.8 | 0.00 | 1.91 | 1.91 | 90 | 1013.7 |
| 20260505194605 | 2 | 13 | 1.6 | 4.8 | 0.05 | 1.91 | 1.91 | 91 | 1013.6 |
| 20260505193605 | 2 | 13 | 3.2 | 4.8 | 0.08 | 1.91 | 1.91 | 91 | 1013.6 |
| 20260505193105 | 2 | 13 | 3.2 | 4.8 | 0.08 | 1.91 | 1.91 | 91 | 1013.6 |
| 20260505191605 | 2 | 13 | 0.0 | 0.0 | 0.13 | 1.91 | 1.91 | 90 | 1013.5 |
| 20260505191105 | 2 | 13 | 0.0 | 0.0 | 0.15 | 1.91 | 1.91 | 90 | 1013.4 |
| 20260505190604 | 2 | 13 | 0.0 | 1.6 | 0.18 | 1.91 | 1.91 | 90 | 1013.4 |
| 20260505190105 | 2 | 13 | 0.0 | 1.6 | 0.18 | 1.91 | 1.91 | 90 | 1013.3 |
| 20260505184605 | 2 | 13 | 0.0 | 1.6 | 0.15 | 1.85 | 1.85 | 90 | 1013.6 |
| 20260505184104 | 2 | 13 | 0.0 | 0.0 | 0.18 | 1.85 | 1.85 | 90 | 1013.5 |
| 20260505183604 | 2 | 13 | 0.0 | 3.2 | 0.15 | 1.83 | 1.83 | 90 | 1013.6 |
| 20260505183105 | 2 | 13 | 1.6 | 4.8 | 0.15 | 1.83 | 1.83 | 90 | 1013.5 |
| 20260505181605 | 2 | 13 | 1.6 | 4.8 | 0.10 | 1.78 | 1.78 | 92 | 1013.2 |
| 20260505181105 | 2 | 13 | 1.6 | 4.8 | 0.08 | 1.75 | 1.75 | 92 | 1013.1 |
| 20260505180605 | 2 | 13 | 1.6 | 4.8 | 0.05 | 1.73 | 1.73 | 92 | 1012.9 |
| 20260505174605 | 1 | 13 | 1.6 | 3.2 | 0.08 | 1.70 | 1.70 | 92 | 1012.6 |
| 20260505174104 | 1 | 13 | 1.6 | 3.2 | 0.08 | 1.68 | 1.68 | 91 | 1012.5 |
| 20260505173605 | 1 | 13 | 3.2 | 4.8 | 0.08 | 1.68 | 1.68 | 91 | 1012.5 |
| 20260505173105 | 1 | 12 | 1.6 | 4.8 | 0.10 | 1.68 | 1.68 | 91 | 1012.4 |
| 20260505171605 | 1 | 12 | 0.0 | 0.0 | 0.18 | 1.68 | 1.68 | 90 | 1012.1 |
| 20260505171105 | 1 | 12 | 0.0 | 0.0 | 0.23 | 1.68 | 1.68 | 89 | 1012.0 |
| 20260505170605 | 1 | 12 | 0.0 | 0.0 | 0.25 | 1.68 | 1.68 | 89 | 1012.0 |
| 20260505170105 | 1 | 12 | 0.0 | 4.8 | 0.25 | 1.68 | 1.68 | 89 | 1011.8 |
| 20260505164605 | 2 | 13 | 0.0 | 3.2 | 0.20 | 1.63 | 1.63 | 88 | 1011.7 |
| 20260505164105 | 2 | 13 | 1.6 | 3.2 | 0.18 | 1.60 | 1.60 | 88 | 1011.7 |
| 20260505163104 | 2 | 14 | 1.6 | 3.2 | 0.15 | 1.57 | 1.57 | 88 | 1011.7 |
| 20260505161105 | 2 | 12 | 0.0 | 0.0 | 0.05 | 1.45 | 1.45 | 89 | 1011.3 |
| 20260505160605 | 2 | 12 | 0.0 | 3.2 | 0.03 | 1.42 | 1.42 | 89 | 1011.3 |
| 20260505160104 | 2 | 12 | 0.0 | 1.6 | 0.08 | 1.42 | 1.42 | 89 | 1011.2 |
| 20260505153104 | 1 | 12 | 0.0 | 3.2 | 0.38 | 1.42 | 1.42 | 90 | 1011.0 |
| 20260505151604 | 1 | 12 | 1.6 | 3.2 | 0.41 | 1.42 | 1.42 | 89 | 1010.9 |
| 20260505151105 | 1 | 11 | 1.6 | 3.2 | 0.41 | 1.40 | 1.40 | 89 | 1010.8 |
| 20260505150604 | 1 | 9 | 0.0 | 0.0 | 0.41 | 1.40 | 1.40 | 89 | 1010.7 |
| 20260505140104 | 1 | 9 | 0.0 | 3.2 | 0.05 | 0.99 | 0.99 | 90 | 1010.8 |
| 20260505130104 | 1 | 10 | 0.0 | 3.2 | 0.33 | 0.94 | 0.94 | 89 | 1010.4 |
| 20260505123604 | 1 | 9 | 0.0 | 0.0 | 0.66 | 0.89 | 0.89 | 88 | 1010.2 |
| 20260505123105 | 1 | 9 | 0.0 | 1.6 | 0.66 | 0.86 | 0.86 | 88 | 1010.1 |
| 20260505121604 | 1 | 9 | 0.0 | 0.0 | 0.74 | 0.79 | 0.79 | 88 | 1010.0 |
| 20260505121105 | 2 | 9 | 1.6 | 3.2 | 0.71 | 0.74 | 0.74 | 88 | 1010.0 |
| 20260505120105 | 2 | 9 | 1.6 | 8.0 | 0.61 | 0.61 | 0.61 | 87 | 1009.8 |
| 20260505114604 | 2 | 9 | 3.2 | 4.8 | 0.36 | 0.36 | 0.36 | 89 | 1009.6 |
| 20260505114104 | 3 | 10 | 3.2 | 8.0 | 0.28 | 0.28 | 0.28 | 88 | 1009.6 |
| 20260505113605 | 3 | 10 | 3.2 | 4.8 | 0.23 | 0.23 | 0.23 | 87 | 1009.6 |
| 20260505113105 | 3 | 10 | 3.2 | 14.5 | 0.20 | 0.20 | 0.20 | 87 | 1009.6 |
| 20260505111604 | 3 | 9 | 8.0 | 14.5 | 0.05 | 0.05 | 0.05 | 87 | 1009.5 |
| 20260505111104 | 3 | 9 | 4.8 | 9.7 | 0.03 | 0.03 | 0.03 | 87 | 1009.5 |
| 20260505110604 | 3 | 9 | 8.0 | 16.1 | 0.00 | 0.00 | 0.00 | 86 | 1009.5 |
| 20260505110104 | 3 | 9 | 8.0 | 16.1 | 0.00 | 0.00 | 0.00 | 85 | 1009.5 |
| 20260505101605 | 3 | 9 | 8.0 | 16.1 | 0.00 | 0.00 | 0.00 | 86 | 1009.4 |
| 20260505101104 | 3 | 9 | 8.0 | 16.1 | 0.00 | 0.00 | 0.00 | 86 | 1009.5 |
| 20260505100105 | 3 | 10 | 14.5 | 20.9 | 0.00 | 0.00 | 0.00 | 87 | 1009.6 |
| 20260505094605 | 4 | 10 | 9.7 | 16.1 | 0.00 | 0.00 | 0.00 | 82 | 1009.6 |
| 20260505094104 | 4 | 10 | 9.7 | 16.1 | 0.00 | 0.00 | 0.00 | 79 | 1009.6 |
| 20260505093605 | 5 | 11 | 8.0 | 11.3 | 0.00 | 0.00 | 0.00 | 77 | 1009.5 |
| 20260505093105 | 5 | 11 | 1.6 | 8.0 | 0.00 | 0.00 | 0.00 | 75 | 1009.5 |
| 20260505091604 | 5 | 9 | 0.0 | 0.0 | 0.00 | 0.00 | 0.00 | 75 | 1009.6 |
| 20260505091105 | 5 | 9 | 1.6 | 3.2 | 0.00 | 0.00 | 0.00 | 74 | 1009.7 |
| 20260505090604 | 5 | 9 | 0.0 | 3.2 | 0.00 | 0.00 | 0.00 | 73 | 1009.6 |
| 20260505090104 | 5 | 9 | 0.0 | 3.2 | 0.00 | 0.00 | 0.00 | 73 | 1009.7 |
| 20260505083604 | 6 | 9 | 0.0 | 0.0 | 0.00 | 0.00 | 0.00 | 70 | 1009.9 |
| 20260505083104 | 6 | 9 | 0.0 | 3.2 | 0.00 | 0.00 | 0.00 | 69 | 1009.8 |
| 20260505081605 | 5 | 5 | 0.0 | 0.0 | 0.00 | 0.00 | 0.00 | 70 | 1009.7 |
| 20260505080104 | 5 | 5 | 0.0 | 0.0 | 0.00 | 0.00 | 0.00 | 70 | 1009.7 |
| 20260505074604 | 5 | 5 | 0.0 | 0.0 | 0.00 | 0.00 | 0.00 | 70 | 1009.8 |
| 20260505074104 | 5 | 5 | 0.0 | 0.0 | 0.00 | 0.00 | 0.00 | 71 | 1009.8 |
| 20260505073604 | 5 | 5 | 0.0 | 0.0 | 0.00 | 0.00 | 0.00 | 71 | 1009.9 |
| 20260505073104 | 5 | 5 | 0.0 | 1.6 | 0.00 | 0.00 | 0.00 | 70 | 1010.0 |
| 20260505071605 | 5 | 5 | 0.0 | 3.2 | 0.00 | 0.00 | 0.00 | 70 | 1010.0 |
| 20260505071104 | 5 | 5 | 1.6 | 4.8 | 0.00 | 0.00 | 0.00 | 69 | 1010.0 |
| 20260505070604 | 5 | 6 | 3.2 | 3.2 | 0.00 | 0.00 | 0.00 | 69 | 1010.1 |
| 20260505070104 | 5 | 9 | 1.6 | 3.2 | 0.00 | 0.00 | 0.00 | 69 | 1010.0 |
| 20260505064604 | 5 | 9 | 0.0 | 0.0 | 0.00 | 0.00 | 0.00 | 70 | 1010.0 |
| 20260505063604 | 5 | 9 | 0.0 | 1.6 | 0.00 | 0.00 | 0.00 | 70 | 1010.1 |
| 20260505063104 | 5 | 9 | 0.0 | 4.8 | 0.00 | 0.00 | 0.00 | 70 | 1010.0 |
| 20260505061605 | 5 | 13 | 3.2 | 4.8 | 0.00 | 0.00 | 0.00 | 70 | 1010.1 |
| 20260505061107 | 5 | 14 | 1.6 | 11.3 | 0.00 | 0.00 | 0.00 | 69 | 1010.0 |
| 20260505060604 | 5 | 14 | 8.0 | 12.9 | 0.00 | 0.00 | 0.00 | 67 | 1010.0 |
| 20260505060104 | 6 | 9 | 1.6 | 4.8 | 0.00 | 0.00 | 0.00 | 66 | 1009.7 |